OpenBCM V1.08-5-g2f4a (Linux)

Packet Radio Mailbox

IZ3LSV

[San Dona' di P. JN]

 Login: GUEST





  
CX2SA  > KEPS     13.07.12 06:45l 319 Lines 8391 Bytes #999 (0) @ WW
BID : ORB12194.D
Read: GUEST
Subj: Orbital Elements  12194.MICROS
Path: IZ3LSV<IR1UAW<IK1NHL<CX2SA
Sent: 120713/0444Z @:CX2SA.SAL.URY.SA #:62996 [Salto] FBB7.00e $:ORB12194.D
From: CX2SA@CX2SA.SAL.URY.SA
To  : KEPS@AMSAT


HR AMSAT ORBITAL ELEMENTS FOR THE MICROSATS
FROM WA5QGD FORT WORTH,TX July 12, 2012
Send SUBSCRIBE KEPS/UNSUBSCRIBE KEPS to majordomo@amsat.org only
BID: ORB12194.D
TO ALL RADIO AMATEURS BT

Satellite: UO-11
Catalog number: 14781
Epoch time:      12194.80385029
Element set:     918
Inclination:      097.9530 deg
RA of node:       254.0992 deg
Eccentricity:    0.0008209
Arg of perigee:   316.6046 deg
Mean anomaly:     043.4519 deg
Mean motion:   14.80490196 rev/day
Decay rate:       7.14e-06 rev/day^2
Epoch rev:           52372
Checksum:              311

Satellite: AO-16
Catalog number: 20439
Epoch time:      12194.93917522
Element set:     509
Inclination:      098.4320 deg
RA of node:       137.5935 deg
Eccentricity:    0.0011863
Arg of perigee:   081.9661 deg
Mean anomaly:     278.2859 deg
Mean motion:   14.32065215 rev/day
Decay rate:       1.36e-06 rev/day^2
Epoch rev:           17368
Checksum:              318

Satellite: LO-19
Catalog number: 20442
Epoch time:      12194.81855364
Element set:     437
Inclination:      098.3965 deg
RA of node:       140.3916 deg
Eccentricity:    0.0012867
Arg of perigee:   075.3939 deg
Mean anomaly:     284.8672 deg
Mean motion:   14.32283327 rev/day
Decay rate:       2.12e-06 rev/day^2
Epoch rev:           17385
Checksum:              328

Satellite: AO-27
Catalog number: 22825
Epoch time:      12193.88451976
Element set:     147
Inclination:      098.5741 deg
RA of node:       136.3151 deg
Eccentricity:    0.0007991
Arg of perigee:   201.5735 deg
Mean anomaly:     158.5107 deg
Mean motion:   14.29470338 rev/day
Decay rate:       1.45e-06 rev/day^2
Epoch rev:           98000
Checksum:              312

Satellite: IO-26
Catalog number: 22826
Epoch time:      12193.88066270
Element set:    0912
Inclination:      098.5692 deg
RA of node:       136.6763 deg
Eccentricity:    0.0008391
Arg of perigee:   196.5388 deg
Mean anomaly:     163.5522 deg
Mean motion:   14.29744529 rev/day
Decay rate:        5.7e-07 rev/day^2
Epoch rev:           98013
Checksum:              340

Satellite: GO-32
Catalog number: 25397
Epoch time:      12193.65120924
Element set:    0822
Inclination:      098.3647 deg
RA of node:       171.1581 deg
Eccentricity:    0.0001172
Arg of perigee:   165.9539 deg
Mean anomaly:     194.1658 deg
Mean motion:   14.23281743 rev/day
Decay rate:       -7.2e-07 rev/day^2
Epoch rev:           72750
Checksum:              309

Satellite: NO-44
Catalog number: 26931
Epoch time:      12193.87342424
Element set:      85
Inclination:      067.0515 deg
RA of node:       056.7172 deg
Eccentricity:    0.0007517
Arg of perigee:   259.1394 deg
Mean anomaly:     100.8823 deg
Mean motion:   14.29810230 rev/day
Decay rate:      -1.62e-06 rev/day^2
Epoch rev:           56277
Checksum:              296

Satellite: SO-50
Catalog number: 27607
Epoch time:      12193.62085904
Element set:     809
Inclination:      064.5564 deg
RA of node:       220.5701 deg
Eccentricity:    0.0081821
Arg of perigee:   243.7296 deg
Mean anomaly:     115.5394 deg
Mean motion:   14.72426428 rev/day
Decay rate:       4.94e-06 rev/day^2
Epoch rev:           51356
Checksum:              309

Satellite: CO-55
Catalog number: 27844
Epoch time:      12194.55131188
Element set:     416
Inclination:      098.7024 deg
RA of node:       202.5605 deg
Eccentricity:    0.0010030
Arg of perigee:   144.3965 deg
Mean anomaly:     215.7891 deg
Mean motion:   14.21040922 rev/day
Decay rate:       1.91e-06 rev/day^2
Epoch rev:           46849
Checksum:              291

Satellite: CO-57
Catalog number: 27848
Epoch time:      12193.50306051
Element set:    0365
Inclination:      098.7105 deg
RA of node:       200.8715 deg
Eccentricity:    0.0009901
Arg of perigee:   151.7470 deg
Mean anomaly:     208.4255 deg
Mean motion:   14.20789791 rev/day
Decay rate:       1.44e-06 rev/day^2
Epoch rev:           46828
Checksum:              309

Satellite: AO-51
Catalog number: 28375
Epoch time:      12194.91125398
Element set:     314
Inclination:      098.1497 deg
RA of node:       158.9926 deg
Eccentricity:    0.0083865
Arg of perigee:   323.8947 deg
Mean anomaly:     035.6618 deg
Mean motion:   14.40963301 rev/day
Decay rate:       1.26e-06 rev/day^2
Epoch rev:           42247
Checksum:              336

Satellite: CP3
Catalog number: 31129
Epoch time:      12194.56068100
Element set:     211
Inclination:      097.8821 deg
RA of node:       200.8416 deg
Eccentricity:    0.0101891
Arg of perigee:   044.7451 deg
Mean anomaly:     316.1880 deg
Mean motion:   14.53120052 rev/day
Decay rate:      1.082e-05 rev/day^2
Epoch rev:           27766
Checksum:              264

Satellite: CO-65
Catalog number: 32785
Epoch time:      12193.66907155
Element set:    0359
Inclination:      097.7979 deg
RA of node:       254.1410 deg
Eccentricity:    0.0014256
Arg of perigee:   346.9085 deg
Mean anomaly:     013.1775 deg
Mean motion:   14.83046509 rev/day
Decay rate:      1.446e-05 rev/day^2
Epoch rev:           22739
Checksum:              337

Satellite: PRISM
Catalog number: 33493
Epoch time:      12194.88338716
Element set:     873
Inclination:      098.1741 deg
RA of node:       336.0632 deg
Eccentricity:    0.0018122
Arg of perigee:   209.9930 deg
Mean anomaly:     150.0267 deg
Mean motion:   14.84003615 rev/day
Decay rate:      2.628e-05 rev/day^2
Epoch rev:           18756
Checksum:              306

Satellite: SOHLA-1
Catalog number: 33496
Epoch time:      12193.94968261
Element set:    0792
Inclination:      098.1069 deg
RA of node:       305.5242 deg
Eccentricity:    0.0006125
Arg of perigee:   331.5255 deg
Mean anomaly:     028.5613 deg
Mean motion:   14.69993282 rev/day
Decay rate:       4.48e-06 rev/day^2
Epoch rev:           18588
Checksum:              331

Satellite: SO-67
Catalog number: 35870
Epoch time:      12194.92572961
Element set:     132
Inclination:      097.2310 deg
RA of node:       229.7693 deg
Eccentricity:    0.0003997
Arg of perigee:   083.8549 deg
Mean anomaly:     038.1686 deg
Mean motion:   15.24017328 rev/day
Decay rate:      4.525e-05 rev/day^2
Epoch rev:           15653
Checksum:              335

Satellite: TISAT-1
Catalog number: 36799
Epoch time:      12194.86239897
Element set:     149
Inclination:      098.0615 deg
RA of node:       271.3853 deg
Eccentricity:    0.0016493
Arg of perigee:   089.7426 deg
Mean anomaly:     270.5678 deg
Mean motion:   14.82040524 rev/day
Decay rate:      1.849e-05 rev/day^2
Epoch rev:           10829
Checksum:              351

Satellite: STUDSAT
Catalog number: 36801
Epoch time:      12193.94512700
Element set:    0431
Inclination:      098.0693 deg
RA of node:       271.2859 deg
Eccentricity:    0.0014197
Arg of perigee:   081.1630 deg
Mean anomaly:     279.1207 deg
Mean motion:   14.84526120 rev/day
Decay rate:      5.015e-05 rev/day^2
Epoch rev:           10819
Checksum:              279

Satellite: FO-69
Catalog number: 37227
Epoch time:      12179.46825757
Element set:    0219
Inclination:      071.9703 deg
RA of node:       289.2712 deg
Eccentricity:    0.0018108
Arg of perigee:   298.3339 deg
Mean anomaly:     061.6016 deg
Mean motion:   14.77092260 rev/day
Decay rate:       1.66e-06 rev/day^2
Epoch rev:           03761
Checksum:              323

Satellite: FO-70
Catalog number: 37380
Epoch time:      12179.47554455
Element set:    0223
Inclination:      071.9743 deg
RA of node:       289.8278 deg
Eccentricity:    0.0018623
Arg of perigee:   295.0880 deg
Mean anomaly:     064.8372 deg
Mean motion:   14.76843679 rev/day
Decay rate:       2.08e-06 rev/day^2
Epoch rev:           03750
Checksum:              341

Satellite: ALMASAT-1
Catalog number: 38078
Epoch time:      12194.73497806
Element set:     377
Inclination:      069.4903 deg
RA of node:       259.3641 deg
Eccentricity:    0.0756903
Arg of perigee:   216.8536 deg
Mean anomaly:     137.8106 deg
Mean motion:   14.10013817 rev/day
Decay rate:     2.2741e-04 rev/day^2
Epoch rev:            2115
Checksum:              312

Satellite: XATCOBEO
Catalog number: 38082
Epoch time:      12194.60296257
Element set:     387
Inclination:      069.4902 deg
RA of node:       257.1583 deg
Eccentricity:    0.0730713
Arg of perigee:   215.6912 deg
Mean anomaly:     139.2955 deg
Mean motion:   14.18076002 rev/day
Decay rate:     5.5978e-04 rev/day^2
Epoch rev:            2119
Checksum:              318



Read previous mail | Read next mail


 16.09.2025 04:50:46lGo back Go up